Back to catalog

STARLINK-5681

AliveCommunicationsVLEO
NORAD 55469·PAYLOAD·🇺🇸 United States

Launched Feb 2, 2023 from Cape Canaveral Space Force Station

Loading…

Next Passes (next 24 hours)

TLE

FreshSource: CelesTrak SupGP

Epoch: Sep 14, 2026, 14:30 UTC

1 55469C 23015W   26257.60465278  .00027566  00000+0  99862-3 0  2579
2 55469  43.0016 341.7248 0001379 274.9928 148.9350 15.27558775    18

Track STARLINK-5681 in real time with AllMySat

Download on the App Store